Bookmark and Share
Track history (hours):
 

Filia Ariea

Last reported at 2014-Apr-16 12:27 UTC. Time now 2014-Apr-17 09:41 UTC.
Position N 55°44' E 015°43'.

Length 90 m; draft 3.3 m.

Type: Cargo ship. MMSI: 244662000.

NotesDate/timePositionNaut miles runAvg speedWind from/ knotsBaromVisibWave heightAir tempDewpointWater temp
2014-Apr-16 12:27N 55°44' E 015°43'1011.4
2014-Apr-16 11:33N 55°39' E 015°27'1111.2
2014-Apr-16 10:33N 55°33' E 015°10'1212.2
2014-Apr-16 09:33N 55°27' E 014°52'9 8.7
2014-Apr-16 08:33N 55°22' E 014°38'1111.1
2014-Apr-16 07:33N 55°14' E 014°25'1111.0
2014-Apr-16 06:33N 55°10' E 014°07'1111.0
2014-Apr-16 05:33N 55°11' E 013°48'1111.3
2014-Apr-16 04:33N 55°12' E 013°28'1111.1
2014-Apr-16 03:33N 55°13' E 013°09'1111.1
2014-Apr-16 02:33N 55°15' E 012°50'9 9.0
2014-Apr-16 01:33N 55°21' E 012°39'1110.6
2014-Apr-16 00:33N 55°32' E 012°42'1110.9
2014-Apr-15 23:33N 55°43' E 012°41'1110.8
2014-Apr-15 22:33N 55°53' E 012°39'1110.7
2014-Apr-15 21:33N 56°04' E 012°37'1111.3
2014-Apr-15 20:33N 56°13' E 012°24'1211.6
2014-Apr-15 19:33N 56°24' E 012°18'1211.9
2014-Apr-15 18:33N 56°35' E 012°12'1212.1
2014-Apr-15 17:32N 56°47' E 012°06'1212.1
2014-Apr-15 16:32N 56°59' E 011°60'1211.9
2014-Apr-15 15:33N 57°10' E 011°54'1211.9
2014-Apr-15 14:33N 57°21' E 011°43'12 5.9
2014-Apr-15 12:34N 57°31' E 011°34'1111.4
2014-Apr-15 11:34N 57°42' E 011°29'1111.0
2014-Apr-15 10:34N 57°53' E 011°30'1111.3
2014-Apr-15 09:34N 58°01' E 011°46'  
2014-Apr-13 03:21N 58°18' E 011°48'1011.5
2014-Apr-13 02:31N 58°09' E 011°50'1111.5
2014-Apr-13 01:33N 57°58' E 011°44'1111.4
2014-Apr-13 00:33N 57°51' E 011°27'1212.0
2014-Apr-12 23:33N 57°49' E 011°05'1313.0
2014-Apr-12 22:33N 57°47' E 010°40'1312.9
2014-Apr-12 21:33N 57°43' E 010°18'10911.8
2014-Apr-12 12:15N 56°27' E 007°52'4211.4
2014-Apr-12 08:33N 55°48' E 007°27'1111.1
2014-Apr-12 07:33N 55°37' E 007°21'1111.1
2014-Apr-12 06:33N 55°26' E 007°14'1111.4
2014-Apr-12 05:33N 55°16' E 007°07'1211.8
2014-Apr-12 04:33N 55°05' E 007°01'1211.8
2014-Apr-12 03:33N 54°54' E 006°53'1311.8
2014-Apr-12 02:29N 54°42' E 006°44'6111.6
2014-Apr-11 21:12N 53°42' E 006°24'811.4
2014-Apr-11 20:29N 53°36' E 006°34'1111.6
2014-Apr-11 19:34N 53°30' E 006°48'1010.3
2014-Apr-11 18:33N 53°22' E 006°59'3 2.9
2014-Apr-11 17:32N 53°19' E 006°56'0 0.4
2014-Apr-11 16:32N 53°19' E 006°56'0 0.0
2014-Apr-11 15:31N 53°19' E 006°56'0 0.0
2014-Apr-11 14:31N 53°19' E 006°56'0 0.0
2014-Apr-11 13:31N 53°19' E 006°56'0 0.0
2014-Apr-11 12:33N 53°19' E 006°56'0 0.0
2014-Apr-11 11:33N 53°19' E 006°56'0 0.0
2014-Apr-11 10:33N 53°19' E 006°56'0 0.0
2014-Apr-11 09:32N 53°19' E 006°56'0 0.0
2014-Apr-11 08:32N 53°19' E 006°56'0 0.0
2014-Apr-11 07:31N 53°19' E 006°56'0 0.0
2014-Apr-11 06:31N 53°19' E 006°56'0 0.0
2014-Apr-11 05:33N 53°19' E 006°56'0 0.0
2014-Apr-11 04:33N 53°19' E 006°56'0 0.0
2014-Apr-11 03:32N 53°19' E 006°56'0 0.0
2014-Apr-11 02:32N 53°19' E 006°56'0 0.0
2014-Apr-11 01:31N 53°19' E 006°56'0 0.0
2014-Apr-11 00:31N 53°19' E 006°56'0 0.0
2014-Apr-10 23:31N 53°19' E 006°56'0 0.0
2014-Apr-10 22:33N 53°19' E 006°56'0 0.0
2014-Apr-10 21:33N 53°19' E 006°56'0 0.0
2014-Apr-10 20:32N 53°19' E 006°56'0 0.0
2014-Apr-10 19:32N 53°19' E 006°56'0 0.0
2014-Apr-10 18:33N 53°19' E 006°56'1 1.1
2014-Apr-10 17:33N 53°19' E 006°57'8 8.2
2014-Apr-10 16:33N 53°27' E 006°53'1413.8
2014-Apr-10 15:33N 53°36' E 006°35'1313.0
2014-Apr-10 14:34N 53°36' E 006°13'1312.9
2014-Apr-10 13:33N 53°33' E 005°52'1312.5
2014-Apr-10 12:34N 53°31' E 005°31'1212.2
2014-Apr-10 11:33N 53°27' E 005°12'1211.6
2014-Apr-10 10:34N 53°22' E 004°54'1111.2
2014-Apr-10 09:33N 53°12' E 004°45'1211.1
2014-Apr-10 08:31N 53°02' E 004°36'1111.0
2014-Apr-10 07:33N 52°52' E 004°30'1110.9
2014-Apr-10 06:33N 52°42' E 004°23'1110.8
2014-Apr-10 05:33N 52°32' E 004°16'1110.7
2014-Apr-10 04:33N 52°22' E 004°12'1111.0
2014-Apr-10 03:33N 52°11' E 004°07'1111.3
2014-Apr-10 02:34N 52°00' E 004°02'1212.3
2014-Apr-10 01:33N 51°53' E 004°19'9 9.1
2014-Apr-10 00:33N 51°50' E 004°33'8 8.2
2014-Apr-09 23:33N 51°42' E 004°36'2 0.1
2014-Apr-09 03:24N 51°41' E 004°35'0 0.0
2014-Apr-09 00:28N 51°41' E 004°35'0 0.0
2014-Apr-08 22:28N 51°41' E 004°35'0 0.0
2014-Apr-08 21:21N 51°41' E 004°35'0 0.0
2014-Apr-08 19:14N 51°41' E 004°35'0 0.0
2014-Apr-08 18:26N 51°41' E 004°35'0 0.0
2014-Apr-08 17:25N 51°41' E 004°35'0 0.1
2014-Apr-08 13:18N 51°41' E 004°34'6 8.1
2014-Apr-08 12:33N 51°47' E 004°38'12 9.5
2014-Apr-08 11:15N 51°53' E 004°20'40 9.9
2014-Apr-08 07:16N 51°48' E 003°16'811.4
2014-Apr-08 06:33N 51°42' E 003°07'1111.4
2014-Apr-08 05:33N 51°34' E 002°54'1111.4
2014-Apr-08 04:33N 51°28' E 002°39'1110.5
2014-Apr-08 03:33N 51°21' E 002°26'1110.9
2014-Apr-08 02:33N 51°15' E 002°11'1110.8
2014-Apr-08 01:33N 51°10' E 001°56'1110.7
2014-Apr-08 00:34N 51°03' E 001°43'1110.4
2014-Apr-07 23:32N 50°55' E 001°32'1310.4
2014-Apr-07 22:17N 50°44' E 001°20'  

Dump ship's entire track history

sailing weather and tide predictions

Filia Ariea — PIET — position and weather